GW6869 Weather Reports


time (UTC)temp
C
wind
direction
speed
KPH
gust
KPH
rain 1hr
cm
rain 24hr
cm
rain mn
cm
humidity
%
barometer
mb
20260506081556 13 0 0.0 0.0 0.00 0.00 0.00 89 1017.9
20260506073055 13 0 0.0 0.0 0.00 0.00 0.00 88 1017.7
20260506071559 13 0 0.0 0.0 0.00 0.00 0.00 88 1017.6
20260506061600 13 0 0.0 0.0 0.00 0.00 0.00 88 1017.3
20260506044709 13 0 0.0 0.0 0.00 0.00 0.00 87 1016.6
20260506043110 13 0 0.0 0.0 0.00 0.00 0.00 87 1016.5
20260506041605 13 0 0.0 0.0 0.00 0.00 0.00 86 1016.6
20260506040057 13 0 0.0 0.0 0.00 0.00 0.00 86 1016.4
20260506034627 13 0 0.0 1.6 0.00 0.00 0.00 85 1016.2
20260506033058 14 0 0.0 0.0 0.00 0.00 0.00 85 1016.0
20260506031606 14 0 0.0 0.0 0.00 0.00 0.00 84 1015.9
20260506030052 14 0 0.0 0.0 0.00 0.00 0.00 84 1015.8
20260506024554 14 0 0.0 0.0 0.00 0.00 0.00 83 1015.7
20260506023108 15 0 0.0 0.0 0.00 0.00 0.00 83 1015.7
20260506021552 15 0 0.0 0.0 0.00 0.00 0.00 82 1015.7
20260506020053 15 0 0.0 1.6 0.00 0.00 0.00 81 1015.7
20260506014556 15 0 0.0 0.0 0.00 0.00 0.00 81 1015.5
20260506013054 15 0 0.0 0.0 0.00 0.00 0.00 80 1015.5
20260506011617 15 0 0.0 0.0 0.00 0.00 0.00 79 1015.5
20260506004625 15 0 0.0 0.0 0.00 0.00 0.00 79 1015.6
20260506003110 15 0 0.0 0.0 0.00 0.00 0.00 79 1015.7
20260506001556 16 0 0.0 3.2 0.00 0.00 0.00 79 1015.7
20260506000057 16 0 0.0 0.0 0.00 0.00 0.00 79 1015.8
20260505234625 16 0 0.0 6.4 0.00 0.00 0.00 77 1015.9
20260505233054 16 0 0.0 4.8 0.00 0.00 0.00 77 1015.8
20260505231557 16 161 0.0 4.8 0.00 0.00 0.00 74 1015.8
20260505230053 16 0 0.0 1.6 0.00 0.00 0.00 74 1016.0
20260505224556 17 0 3.2 8.0 0.00 0.00 0.00 70 1016.0
20260505223055 16 34 0.0 6.4 0.00 0.00 0.00 73 1016.1
20260505221551 16 0 0.0 6.4 0.00 0.00 0.00 75 1016.2
20260505214601 16 0 0.0 3.2 0.00 0.00 0.00 76 1016.3
20260505213100 17 250 0.0 4.8 0.00 0.00 0.00 77 1016.4
20260505211600 16 313 0.0 6.4 0.00 0.00 0.00 77 1016.2
20260505210056 15 0 0.0 8.0 0.00 0.00 0.00 81 1016.4
20260505204600 15 0 0.0 8.0 0.00 0.00 0.00 82 1016.6
20260505203056 15 329 0.0 0.0 0.00 0.00 0.00 81 1016.6
20260505201554 14 0 0.0 0.0 0.00 0.00 0.00 83 1016.6
20260505200059 14 0 0.0 6.4 0.00 0.00 0.00 84 1016.6
20260505194559 13 128 0.0 4.8 0.00 0.00 0.00 84 1016.7
20260505193059 13 162 0.0 4.8 0.00 0.00 0.00 85 1016.7
20260505191558 13 119 0.0 4.8 0.00 0.00 0.00 86 1016.7
20260505190055 12 0 0.0 0.0 0.00 0.00 0.00 87 1016.8
20260505184603 12 0 0.0 0.0 0.00 0.00 0.00 88 1016.8
20260505183055 12 220 0.0 4.8 0.00 0.00 0.00 89 1016.7
20260505181600 12 0 0.0 3.2 0.00 0.00 0.00 89 1016.8
20260505180058 12 0 0.0 3.2 0.00 0.00 0.00 89 1016.6
20260505174610 12 0 0.0 1.6 0.00 0.00 0.00 89 1016.6
20260505173054 11 0 0.0 0.0 0.00 0.00 0.00 90 1016.5
20260505171556 11 0 0.0 0.0 0.00 0.00 0.00 90 1016.5
20260505170126 11 0 0.0 0.0 0.00 0.00 0.00 90 1016.4
20260505164558 11 0 0.0 0.0 0.00 0.00 0.00 90 1016.4
20260505163052 11 0 0.0 0.0 0.00 0.00 0.00 91 1016.2
20260505161556 11 0 0.0 0.0 0.00 0.00 0.00 91 1016.2
20260505153058 11 0 0.0 0.0 0.00 0.00 0.00 91 1016.0
20260505151556 11 0 0.0 0.0 0.00 0.00 0.00 91 1015.9
20260505124557 11 0 0.0 0.0 0.00 0.00 0.00 90 1015.1
20260505123112 11 0 0.0 0.0 0.00 0.00 0.00 89 1015.0
20260505121556 11 0 0.0 0.0 0.00 0.00 0.00 89 1015.1
20260505120058 11 0 0.0 0.0 0.00 0.00 0.00 88 1015.0
20260505114613 11 0 0.0 0.0 0.00 0.00 0.00 88 1015.0
20260505113055 11 0 0.0 0.0 0.00 0.00 0.00 88 1014.9
20260505111604 11 0 0.0 0.0 0.00 0.00 0.00 87 1014.9
20260505101559 12 0 0.0 0.0 0.00 0.00 0.00 87 1014.4
20260505100057 12 0 0.0 0.0 0.00 0.00 0.00 86 1014.4
20260505094553 12 0 0.0 0.0 0.00 0.00 0.00 86 1014.4
20260505093053 12 0 0.0 0.0 0.00 0.00 0.00 86 1014.2
20260505091552 12 0 0.0 0.0 0.00 0.00 0.00 86 1014.2
20260505090058 12 0 0.0 0.0 0.00 0.00 0.00 85 1014.2
20260505084552 13 0 0.0 0.0 0.00 0.00 0.00 84 1014.0
20260505083102 13 0 0.0 0.0 0.00 0.00 0.00 84 1014.0